[[{"header":{"parameterUnit":"m.s-1","parameterCategory":1,"la1":30.2991,"la2":30.254,"lo1":-89.0895,"lo2":-89.0444,"dy":0.0017,"dx":0.0017,"nx":28,"ny":28,"refTime":"2024-03-09T03:00:00:Z","depth":0,"parameterNumber":2,"parameterNumberName":"U-component_of_WINDS"},"data":[0,0,0,0,0,0,0,0,0,0,0,0,0,0,0,0,0,0,0,0,0,0,0,0,0,0,0,0,0,0,0,0,0,0,0,0,0,0,0,0,0,0,0,0,0,0,0,0,0,0,0,0,0,0,0,0,0,0,-0.4629,-0.4629,0,-0.4639,-0.4639,-0.4639,-0.4618,-0.4617,-0.4616,-0.4616,-0.4627,-0.4628,-0.4629,0,0,0,0,0,0,0,0,0,0,0,0,0,-0.4592,-0.4593,-0.4629,-0.4629,-0.4629,-0.4639,-0.4639,-0.4639,-0.4618,-0.4617,-0.4616,-0.4615,-0.4627,-0.4628,-0.4629,0,0,0,0,0,0,0,0,0,0,0,0,0,-0.4606,-0.4593,-0.4629,-0.462,-0.4619,-0.4639,-0.4639,-0.4639,-0.4618,-0.4617,-0.4616,-0.4615,-0.4626,-0.4628,-0.4629,-0.4659,0,0,-0.4634,-0.4634,0,0,0,0,0,0,0,0,-0.4605,-0.4607,-0.4621,-0.462,-0.462,-0.4626,-0.463,-0.4646,-0.4618,-0.4618,-0.4616,-0.4614,-0.4628,-0.4629,-0.4633,-0.466,-0.466,-0.4634,-0.4635,-0.4635,-0.4636,0,0,0,0,0,0,0,-0.4604,-0.4606,-0.4633,-0.4621,-0.462,-0.4615,-0.4616,-0.4633,-0.4629,-0.4618,-0.4617,-0.4618,-0.4627,-0.4632,-0.4633,-0.466,-0.4634,-0.4635,-0.4636,-0.4636,-0.4712,-0.4713,0,0,0,0,0,0,-0.4604,-0.4606,-0.4633,-0.4633,-0.4609,-0.4617,-0.4618,-0.4625,-0.4629,-0.4628,-0.4619,-0.4617,-0.463,-0.4632,-0.4634,-0.4669,-0.4635,-0.4636,-0.4637,-0.4711,-0.4712,-0.4713,0,0,0,0,0,0,-0.4603,-0.4607,-0.4632,-0.4619,-0.4622,-0.4619,-0.4627,-0.4626,-0.4631,-0.4629,-0.4628,-0.4625,-0.4629,-0.4632,-0.4653,-0.4669,-0.4637,-0.4638,-0.471,-0.4711,-0.4713,-0.4741,0,0,0,0,0,0,-0.4602,-0.4607,-0.4618,-0.462,-0.4623,-0.4651,-0.4628,-0.4627,-0.4633,-0.4631,-0.4634,-0.4634,-0.4628,-0.4651,-0.4654,-0.4671,-0.464,-0.4708,-0.471,-0.4712,-0.4738,-0.4743,-0.4747,0,0,0,0,0,-0.4601,-0.4625,-0.4618,-0.4622,-0.4637,-0.4652,-0.4654,-0.4647,-0.4634,-0.4646,-0.4645,-0.4634,-0.4667,-0.4653,-0.4657,-0.4674,-0.4707,-0.471,-0.4712,-0.4736,-0.4742,-0.4747,0,0,0,0,0,0,-0.4626,-0.4626,-0.4618,-0.4643,-0.4648,-0.4649,-0.4663,-0.4654,-0.4663,-0.466,-0.4651,-0.4652,-0.4675,-0.4677,-0.4662,-0.4703,-0.4685,-0.4688,-0.4702,-0.4707,-0.4712,-0.4711,-0.4641,0,0,0,0,0,-0.4635,-0.4647,-0.4646,-0.4669,-0.4671,-0.4667,-0.4673,-0.4667,-0.4672,-0.4674,-0.4675,-0.468,-0.4691,-0.4699,-0.471,-0.4738,-0.4739,-0.4751,-0.4756,-0.476,-0.4763,-0.4778,-0.4784,-0.4722,-0.4722,-0.4722,0,0,-0.4652,-0.4654,-0.4662,-0.4674,-0.4677,-0.469,-0.4669,-0.4684,-0.4694,-0.4676,-0.4697,-0.4697,-0.4702,-0.4727,-0.4738,-0.4729,-0.478,-0.4763,-0.4766,-0.4767,-0.4782,-0.4788,-0.4793,-0.4724,-0.4723,-0.4723,0,0,-0.4692,-0.4694,-0.4713,-0.4716,-0.4721,-0.4717,-0.4722,-0.4724,-0.4724,-0.4744,-0.4731,-0.4743,-0.4762,-0.4767,-0.4772,-0.4812,-0.4802,-0.4815,-0.4839,-0.4854,-0.4859,-0.4864,-0.4879,-0.4884,-0.4819,-0.4819,-0.4819,0,-0.4714,-0.4733,-0.4724,-0.474,-0.4746,-0.473,-0.475,-0.4753,-0.4761,-0.4766,-0.4755,-0.4779,-0.4782,-0.4808,-0.4817,-0.4821,-0.4827,-0.4816,-0.4859,-0.4863,-0.4867,-0.4882,-0.4887,-0.482,-0.482,-0.482,-0.482,0,-0.476,-0.4774,-0.4789,-0.4796,-0.4803,-0.4821,-0.4815,-0.4823,-0.4817,-0.4814,-0.4835,-0.4837,-0.4848,-0.4853,-0.4847,-0.4878,-0.4873,-0.4861,-0.4842,-0.4875,-0.4888,-0.4894,-0.4823,-0.4822,-0.4822,-0.4821,0,0,-0.4817,-0.4818,-0.4824,-0.4828,-0.4831,-0.4842,-0.4858,-0.4868,-0.4876,-0.4882,-0.4896,-0.4913,-0.4902,-0.4907,-0.4901,-0.4914,-0.4947,-0.4901,-0.4901,-0.491,-0.4982,-0.4992,-0.4998,-0.494,-0.4941,-0.4941,-0.4982,0,-0.4856,-0.4885,-0.4877,-0.4907,-0.4919,-0.4904,-0.4919,-0.4923,-0.4921,-0.4932,-0.4929,-0.4942,-0.4926,-0.4929,-0.4941,-0.494,-0.4961,-0.4937,-0.4954,-0.4954,-0.4954,-0.5005,-0.5015,-0.5053,-0.4987,-0.4988,-0.4988,0,-0.4907,-0.4914,-0.4944,-0.4946,-0.4951,-0.4964,-0.4973,-0.4983,-0.4987,-0.4984,-0.499,-0.4981,-0.4998,-0.4979,-0.5002,-0.4986,-0.4992,-0.4992,-0.4993,-0.4996,-0.4974,-0.5009,-0.5065,-0.5071,-0.4996,-0.4996,-0.4995,0,-0.4946,-0.4963,-0.4984,-0.4987,-0.4989,-0.4999,-0.5,-0.5003,-0.5009,-0.5016,-0.5021,-0.503,-0.5035,-0.5043,-0.5037,-0.5023,-0.5061,-0.5041,-0.506,-0.5061,-0.507,-0.507,-0.5129,-0.5072,-0.5072,-0.5072,-0.5072,0,-0.4992,-0.5011,-0.5001,-0.5014,-0.5035,-0.5026,-0.5047,-0.5047,-0.5049,-0.5062,-0.5049,-0.5061,-0.5052,-0.5063,-0.5058,-0.5078,-0.5081,-0.508,-0.5078,-0.5082,-0.5082,-0.5086,-0.5084,-0.5074,-0.5073,-0.5073,-0.5073,0,-0.504,-0.5034,-0.5055,-0.5055,-0.5055,-0.5071,-0.5071,-0.5083,-0.508,-0.5096,-0.5099,-0.5094,-0.5107,-0.5101,-0.5114,-0.5111,-0.5137,-0.5132,-0.5136,-0.5135,-0.5155,-0.5154,-0.522,-0.5228,-0.5166,-0.5166,-0.5167,0,-0.507,-0.5085,-0.5086,-0.5093,-0.5095,-0.5107,-0.5113,-0.5104,-0.5111,-0.5117,-0.5128,-0.5139,-0.5148,-0.5169,-0.5167,-0.5177,-0.5172,-0.5194,-0.5174,-0.5176,-0.5173,-0.5173,-0.5175,-0.5199,-0.52,-0.52,-0.5201,0,-0.5124,-0.5121,-0.513,-0.5139,-0.5147,-0.5153,-0.5159,-0.5165,-0.5156,-0.5165,-0.5178,-0.5184,-0.5197,-0.5209,-0.5218,-0.5219,-0.5209,-0.5207,-0.5212,-0.5216,-0.5219,-0.5218,-0.5149,-0.5206,-0.5206,-0.5205,-0.5205,-0.5205,-0.5165,-0.5177,-0.518,-0.5191,-0.5194,-0.5199,-0.521,-0.5208,-0.5218,-0.5228,-0.5222,-0.5237,-0.524,-0.5251,-0.5253,-0.5265,-0.5256,-0.5263,-0.5265,-0.5268,-0.5271,-0.5216,-0.5266,-0.5266,-0.5266,-0.5266,-0.5266,0,-0.522,-0.522,-0.523,-0.5238,-0.5247,-0.5235,-0.5241,-0.5249,-0.5262,-0.5266,-0.5274,-0.5289,-0.53,-0.5298,-0.5308,-0.5318,-0.5313,-0.5321,-0.5321,-0.5321,-0.5278,-0.5273,-0.5324,-0.5324,-0.5324,-0.5324,-0.5324,-0.5324,-0.5249,-0.5269,-0.5266,-0.5287,-0.5288,-0.5302,-0.5306,-0.5311,-0.5314,-0.533,-0.5339,-0.5338,-0.5339,-0.5349,-0.5359,-0.5358,-0.5363,-0.5372,-0.537,-0.533,-0.5324,-0.5319,-0.5314,-0.5373,-0.5373,-0.5413,-0.5413,-0.5413]},{"header":{"parameterUnit":"m.s-1","parameterCategory":1,"la1":30.2991,"la2":30.254,"lo1":-89.0895,"lo2":-89.0444,"dy":0.0017,"dx":0.0017,"nx":28,"ny":28,"refTime":"2024-03-09T03:00:00:Z","depth":0,"parameterNumber":3,"parameterNumberName":"V-component_of_WINDS"},"data":[0,0,0,0,0,0,0,0,0,0,0,0,0,0,0,0,0,0,0,0,0,0,0,0,0,0,0,0,0,0,0,0,0,0,0,0,0,0,0,0,0,0,0,0,0,0,0,0,0,0,0,0,0,0,0,0,0,0,-5.436,-5.4361,0,-5.4421,-5.4421,-5.4422,-5.438,-5.4378,-5.4376,-5.4374,-5.4433,-5.4436,-5.4439,0,0,0,0,0,0,0,0,0,0,0,0,0,-5.4204,-5.4207,-5.436,-5.4361,-5.4361,-5.4421,-5.4421,-5.4422,-5.438,-5.4378,-5.4375,-5.4373,-5.4431,-5.4435,-5.4439,0,0,0,0,0,0,0,0,0,0,0,0,0,-5.4269,-5.4208,-5.436,-5.4348,-5.4347,-5.442,-5.4421,-5.4422,-5.4381,-5.4378,-5.4375,-5.4372,-5.443,-5.4435,-5.444,-5.4527,0,0,-5.4455,-5.4457,0,0,0,0,0,0,0,0,-5.4265,-5.4274,-5.4349,-5.4349,-5.4348,-5.439,-5.4388,-5.4458,-5.4381,-5.4368,-5.4374,-5.4371,-5.442,-5.4426,-5.4443,-5.453,-5.4533,-5.4456,-5.4459,-5.4461,-5.4462,0,0,0,0,0,0,0,-5.4261,-5.4272,-5.4384,-5.435,-5.4349,-5.4338,-5.4344,-5.4401,-5.4409,-5.4369,-5.4366,-5.4374,-5.442,-5.4439,-5.4445,-5.4534,-5.4455,-5.446,-5.4463,-5.4465,-5.4696,-5.4699,0,0,0,0,0,0,-5.4258,-5.4268,-5.4382,-5.4386,-5.4299,-5.4343,-5.435,-5.4379,-5.4408,-5.441,-5.4376,-5.4372,-5.4432,-5.4439,-5.4446,-5.4552,-5.4461,-5.4465,-5.4468,-5.4693,-5.4697,-5.47,0,0,0,0,0,0,-5.4255,-5.4268,-5.4379,-5.4326,-5.4339,-5.4349,-5.4382,-5.4382,-5.4401,-5.4414,-5.4415,-5.4394,-5.443,-5.4439,-5.4508,-5.4553,-5.4468,-5.4472,-5.4689,-5.4694,-5.4698,-5.4763,0,0,0,0,0,0,-5.425,-5.4267,-5.4302,-5.4327,-5.4343,-5.4441,-5.4385,-5.4385,-5.441,-5.4405,-5.4431,-5.4433,-5.4428,-5.4501,-5.4513,-5.4559,-5.4476,-5.4685,-5.4691,-5.4697,-5.4757,-5.4769,-5.478,0,0,0,0,0,-5.4245,-5.4316,-5.4303,-5.4317,-5.4386,-5.4444,-5.4452,-5.4447,-5.4414,-5.4448,-5.4456,-5.4432,-5.4546,-5.4508,-5.4522,-5.4569,-5.4682,-5.4689,-5.4696,-5.4751,-5.4767,-5.478,0,0,0,0,0,0,-5.4294,-5.4319,-5.4305,-5.4387,-5.4414,-5.4437,-5.4479,-5.4463,-5.4498,-5.4491,-5.4481,-5.4488,-5.456,-5.4571,-5.4529,-5.4656,-5.4609,-5.4619,-5.4646,-5.4661,-5.4672,-5.4668,-5.448,0,0,0,0,0,-5.4314,-5.4361,-5.438,-5.445,-5.4465,-5.447,-5.4495,-5.4489,-5.4515,-5.4526,-5.4539,-5.4565,-5.4606,-5.4634,-5.4673,-5.4758,-5.4763,-5.4797,-5.4809,-5.4818,-5.4827,-5.4874,-5.4889,-5.4723,-5.4723,-5.4723,0,0,-5.4357,-5.4376,-5.4406,-5.4461,-5.4481,-5.4528,-5.448,-5.4532,-5.4567,-5.4533,-5.46,-5.461,-5.4638,-5.4716,-5.4751,-5.4727,-5.4874,-5.4827,-5.4834,-5.4838,-5.4883,-5.4898,-5.4912,-5.4728,-5.4727,-5.4726,0,0,-5.4459,-5.4478,-5.454,-5.4561,-5.4592,-5.4596,-5.461,-5.4636,-5.4643,-5.4709,-5.4685,-5.4726,-5.4798,-5.4819,-5.4839,-5.4951,-5.493,-5.4963,-5.5024,-5.507,-5.5083,-5.5094,-5.5135,-5.515,-5.4972,-5.4972,-5.4973,0,-5.4507,-5.4579,-5.4573,-5.4628,-5.4653,-5.4626,-5.4688,-5.4708,-5.475,-5.4768,-5.4741,-5.4832,-5.4848,-5.4931,-5.4959,-5.4975,-5.4992,-5.4961,-5.5082,-5.5093,-5.5104,-5.5142,-5.5158,-5.4976,-5.4976,-5.4976,-5.4975,0,-5.4638,-5.4688,-5.4734,-5.4778,-5.4807,-5.4865,-5.4867,-5.4898,-5.4888,-5.4894,-5.4963,-5.4982,-5.5025,-5.5044,-5.5034,-5.5126,-5.511,-5.5083,-5.5036,-5.5124,-5.516,-5.5175,-5.4982,-5.4981,-5.4979,-5.4978,0,0,-5.4772,-5.4813,-5.483,-5.4849,-5.4882,-5.4921,-5.4977,-5.5021,-5.5048,-5.5077,-5.5125,-5.5187,-5.5162,-5.5185,-5.5178,-5.5218,-5.5306,-5.5185,-5.5186,-5.5208,-5.5408,-5.543,-5.5447,-5.5292,-5.5295,-5.5297,-5.5406,0,-5.4877,-5.4978,-5.4974,-5.5068,-5.5115,-5.509,-5.5139,-5.5165,-5.5172,-5.5211,-5.5218,-5.5263,-5.5226,-5.524,-5.5279,-5.5287,-5.5346,-5.5279,-5.5336,-5.5338,-5.5331,-5.5466,-5.5488,-5.5591,-5.542,-5.5423,-5.5425,0,-5.5013,-5.505,-5.5149,-5.5176,-5.5195,-5.524,-5.528,-5.5319,-5.5347,-5.5349,-5.5375,-5.5362,-5.5419,-5.537,-5.5447,-5.5402,-5.5425,-5.5432,-5.5436,-5.5442,-5.5387,-5.5476,-5.5623,-5.5639,-5.5446,-5.5445,-5.5443,0,-5.5103,-5.5176,-5.5246,-5.5263,-5.5296,-5.5329,-5.5344,-5.5369,-5.5396,-5.543,-5.5447,-5.5487,-5.551,-5.554,-5.5538,-5.5502,-5.5617,-5.5568,-5.5621,-5.5621,-5.5647,-5.5645,-5.58,-5.566,-5.566,-5.5659,-5.5659,0,-5.5221,-5.5283,-5.5287,-5.5329,-5.5398,-5.5392,-5.546,-5.5471,-5.5494,-5.5538,-5.5518,-5.5559,-5.5553,-5.5594,-5.5592,-5.5658,-5.5667,-5.567,-5.5669,-5.5673,-5.5673,-5.5688,-5.5682,-5.5663,-5.5662,-5.5662,-5.5661,0,-5.5333,-5.5338,-5.5412,-5.5438,-5.5446,-5.5496,-5.5517,-5.5557,-5.5563,-5.5619,-5.5631,-5.5639,-5.5687,-5.5687,-5.5741,-5.574,-5.582,-5.581,-5.5812,-5.581,-5.5863,-5.5859,-5.6035,-5.6058,-5.5901,-5.5903,-5.5904,0,-5.5409,-5.5456,-5.5488,-5.5517,-5.5534,-5.5581,-5.5609,-5.5605,-5.5634,-5.567,-5.5706,-5.5752,-5.5789,-5.5865,-5.5876,-5.5917,-5.5908,-5.5967,-5.5914,-5.5917,-5.5911,-5.5908,-5.5913,-5.5978,-5.5979,-5.5981,-5.5982,0,-5.5543,-5.5543,-5.5585,-5.5629,-5.5663,-5.5696,-5.5727,-5.5751,-5.5751,-5.5785,-5.5834,-5.5863,-5.5919,-5.5965,-5.6005,-5.6019,-5.6001,-5.5999,-5.6013,-5.6018,-5.6017,-5.602,-5.5841,-5.5995,-5.5993,-5.5992,-5.5992,-5.5991,-5.564,-5.5681,-5.5711,-5.5758,-5.5781,-5.5811,-5.585,-5.5862,-5.5903,-5.595,-5.5944,-5.5999,-5.6026,-5.6078,-5.6096,-5.6138,-5.6118,-5.6138,-5.6144,-5.615,-5.6156,-5.601,-5.6145,-5.6145,-5.6144,-5.6144,-5.6144,0,-5.5774,-5.5792,-5.5836,-5.5881,-5.5918,-5.5899,-5.5932,-5.5964,-5.6014,-5.6041,-5.6078,-5.6135,-5.618,-5.6194,-5.6237,-5.6268,-5.6261,-5.628,-5.6278,-5.6282,-5.6171,-5.6155,-5.6285,-5.6285,-5.6285,-5.6285,-5.6285,-5.6285,-5.5848,-5.5918,-5.5922,-5.6003,-5.602,-5.6075,-5.6096,-5.6123,-5.6145,-5.621,-5.6248,-5.6257,-5.6279,-5.6324,-5.6364,-5.6367,-5.6384,-5.6407,-5.6406,-5.6303,-5.6289,-5.6276,-5.626,-5.641,-5.641,-5.6513,-5.6514,-5.6514]}]]